Вернуться в каталог

STARLINK-31985

АктивенСвязьVLEO
NORAD 60036·PAYLOAD·🇺🇸 United States

Запущен Jun 8, 2024 с Cape Canaveral Space Force Station

Loading…

Ближайшие Пролёты (ближайшие 24 часа)

TLE

СвежийSource: CelesTrak SupGP

Эпоха: Sep 14, 2026, 22:23 UTC

1 60036C 24111W   26257.93312500  .00053158  00000+0  15710-2 0  2573
2 60036  53.1568 275.6333 0001198  93.4713 180.0480 15.34355996    12

Отслеживайте STARLINK-31985 в реальном времени с AllMySat

Download on the App Store